Change the Weather History Date:

Saturday, March 2, 2013

  Actual Average Record
Temperature  
Mean Temperature 10 °F -  
Max Temperature 35 °F 12 °F 42 °F (1958)
Min Temperature -15 °F -9 °F -46 °F (1956)
Degree Days  
Heating Degree Days 55    
Moisture  
Dew Point -10 °F    
Average Humidity 51    
Maximum Humidity 71    
Minimum Humidity 23    
Precipitation  
Precipitation 0.00 in - - ()
Snow  
Snow 0.00 in - - ()
Snow Depth 13.00 in    
Sea Level Pressure  
Sea Level Pressure 30.16 in    
Wind  
Wind Speed 2 mph (East)    
Max Wind Speed 12 mph    
Max Gust Speed -    
Visibility 10 miles    
Events      
Averages and records for this station are not official NWS values.
T = Trace of Precipitation, MM = Missing Value Source: NWS Daily Summary

Daily Weather History Graph

Daily Weather History Graph

Search for Another Location

Airport or City:

Trip Planner

Search our weather history database for the weather conditions in past years. The results will help you decide how hot, cold, wet, or windy it might be!

Date:

Astronomy

Mar. 02, 2013 Rise Set
Actual Time 8:13 AM AKST 6:29 PM AKST
Civil Twilight 7:23 AM AKST 7:19 PM AKST
Nautical Twilight 6:26 AM AKST 8:16 PM AKST
Astronomical Twilight 5:26 AM AKST 9:16 PM AKST
Moon 1:25 AM AKST (3/2) 8:29 AM AKST (3/2)
Length of Visible Light 11h 55m
Length of Day
10h 15m
Waning Gibbous, 72% of the Moon is Illuminated
Mar 2
Waning Gibbous
Mar 4
Last Quarter
Mar 11
New
Mar 19
First Quarter
Mar 27
Full

Hourly Weather History & Observations

Time (AKST) Temp. Windchill Dew Point Humidity Pressure Visibility Wind Dir Wind Speed Gust Speed Precip Events Conditions
12:36 AM 8.6 °F - -9.4 °F 44% 30.05 in 10.0 mi Calm Calm - N/A   Mostly Cloudy
12:43 AM -0.4 °F - -9.4 °F 66% 30.05 in 10.0 mi Calm Calm - N/A   Scattered Clouds
12:52 AM -0.0 °F - -11.0 °F 60% 30.08 in 10.0 mi Calm Calm - N/A   Partly Cloudy
1:52 AM -9.0 °F - -16.1 °F 71% 30.10 in 10.0 mi Calm Calm - N/A   Partly Cloudy
2:52 AM -11.0 °F - -18.0 °F 71% 30.12 in 10.0 mi Calm Calm - N/A   Clear
3:52 AM -13.0 °F - -20.0 °F 71% 30.13 in 10.0 mi Calm Calm - N/A   Clear
4:52 AM -14.1 °F - -23.1 °F 64% 30.13 in 10.0 mi Calm Calm - N/A   Clear
5:52 AM -15.0 °F - -23.1 °F 67% 30.13 in 10.0 mi Calm Calm - N/A   Clear
6:52 AM -13.0 °F -22.7 °F -24.0 °F 58% 30.14 in 10.0 mi NW 3.5 mph - N/A   Clear
7:52 AM -14.1 °F - -23.1 °F 64% 30.15 in 10.0 mi Calm Calm - N/A   Partly Cloudy
8:52 AM -14.1 °F - -23.1 °F 64% 30.15 in 10.0 mi Calm Calm - N/A   Partly Cloudy
9:52 AM -0.9 °F -11.0 °F -15.0 °F 52% 30.16 in 10.0 mi West 4.6 mph - N/A   Partly Cloudy
10:52 AM 7.0 °F - -9.9 °F 46% 30.18 in 10.0 mi Calm Calm - N/A   Scattered Clouds
11:52 AM 10.9 °F - -7.1 °F 44% 30.18 in 10.0 mi Calm Calm - N/A   Partly Cloudy
12:52 PM 18.0 °F - -4.0 °F 38% 30.17 in 10.0 mi Calm Calm - N/A   Partly Cloudy
1:52 PM 30.0 °F 20.5 °F -0.0 °F 28% 30.16 in 10.0 mi East 11.5 mph - N/A   Partly Cloudy
2:52 PM 26.1 °F 16.2 °F 1.0 °F 34% 30.16 in 10.0 mi East 10.4 mph - N/A   Partly Cloudy
3:52 PM 33.1 °F 25.5 °F 1.0 °F 26% 30.16 in 10.0 mi ESE 9.2 mph - N/A   Partly Cloudy
4:52 PM 35.1 °F 27.4 °F -0.0 °F 23% 30.17 in 10.0 mi ESE 10.4 mph - N/A   Partly Cloudy
5:52 PM 27.0 °F 17.3 °F -0.9 °F 30% 30.18 in 10.0 mi ESE 10.4 mph - N/A   Partly Cloudy
6:52 PM 10.9 °F 2.9 °F -2.0 °F 56% 30.19 in 10.0 mi ENE 4.6 mph - N/A   Partly Cloudy
7:52 PM 12.9 °F 3.8 °F -2.9 °F 49% 30.20 in 10.0 mi ENE 5.8 mph - N/A   Partly Cloudy
8:52 PM 18.0 °F 6.9 °F -2.9 °F 40% 30.22 in 10.0 mi East 9.2 mph - N/A   Partly Cloudy
9:52 PM 5.0 °F - -6.0 °F 61% 30.23 in 10.0 mi Calm Calm - N/A   Clear
10:52 PM - - - N/A% 30.21 in 10.0 mi Calm Calm - N/A   Clear
11:52 PM - - - N/A% 30.23 in 10.0 mi NW 3.5 mph - N/A   Clear